Newport, Oregon, United States (97365)
Lat: 44.64N, Lon: 124.05W
Wx Zone: ORZ002
Local Info
Past Weather Observations for Today

NOTE: This archive is for the closest National Weather Service station to Newport. Information may differ from the station used for current weather conditions.

Click here for Long-term Archive

Time Weather Temperature Dewpoint Humidity Pressure Winds Precip Visibility
14:35
Overcast
Fog And Mist
59°F / 15°C 55°F / 13°C 88% 30.18 in
(1022 mb)
NNW 17.3 mph
(NNW 28 kph)
- 3SM
14:15
Overcast
Hazy
61°F / 16°C 55°F / 13°C 83% 30.18 in
(1022 mb)
NNW 19.6 mph
(NNW 32 kph)
- 5SM
13:55
Overcast
Fog And Mist
61°F / 16°C 57°F / 14°C 88% 30.18 in
(1022 mb)
NNW 20.7 mph
(NNW 33 kph)
- 3SM
13:35
Overcast
Hazy
61°F / 16°C 55°F / 13°C 83% 30.18 in
(1022 mb)
NNW 17.3 mph
(NNW 28 kph)
- 3SM
13:15
Overcast
Fog And Mist
61°F / 16°C 55°F / 13°C 83% 30.18 in
(1022 mb)
NNW 16.1 mph
(NNW 26 kph)
- 4SM
12:55
Overcast
Fog And Mist
59°F / 15°C 55°F / 13°C 88% 30.18 in
(1022 mb)
N 15 mph
(N 24 kph)
- 5SM
12:35
Overcast
Fog And Mist
59°F / 15°C 55°F / 13°C 88% 30.18 in
(1022 mb)
N 18.4 mph
(N 30 kph)
- 1 3/4SM
12:15
Overcast
Fog And Mist
57°F / 14°C 54°F / 12°C 88% 30.18 in
(1022 mb)
NNW 17.3 mph
(NNW 28 kph)
- 1SM
11:55
Overcast
Fog And Mist
57°F / 14°C 54°F / 12°C 88% 30.18 in
(1022 mb)
NNW 18.4 mph
(NNW 30 kph)
- 1 1/4SM
11:35
Overcast
Fog And Mist
57°F / 14°C 54°F / 12°C 88% 30.18 in
(1022 mb)
NNW 17.3 mph
(NNW 28 kph)
- 2 1/2SM
11:15
Overcast
Hazy
59°F / 15°C 54°F / 12°C 82% 30.18 in
(1022 mb)
NNW 16.1 mph
(NNW 26 kph)
- 3SM
10:55
Partly Cloudy
Hazy
59°F / 15°C 54°F / 12°C 82% 30.18 in
(1022 mb)
N 17.3 mph
(N 28 kph)
- 5SM
10:35
Clear
61°F / 16°C 55°F / 13°C 83% 30.18 in
(1022 mb)
NNW 17.3 mph
(NNW 28 kph)
- 10SM
10:15
Clear
Hazy
59°F / 15°C 54°F / 12°C 82% 30.18 in
(1022 mb)
NNW 17.3 mph
(NNW 28 kph)
- 5SM
09:55
Clear
61°F / 16°C 55°F / 13°C 83% 30.18 in
(1022 mb)
NNW 13.8 mph
(NNW 22 kph)
- 10SM
09:35
Clear
61°F / 16°C 55°F / 13°C 83% 30.18 in
(1022 mb)
N 11.5 mph
(N 19 kph)
- 10SM
09:15
Clear
59°F / 15°C 54°F / 12°C 82% 30.18 in
(1022 mb)
NNW 10.4 mph
(NNW 17 kph)
- 7SM
08:55
Clear
59°F / 15°C 54°F / 12°C 82% 30.18 in
(1022 mb)
NNW 9.2 mph
(NNW 15 kph)
- 10SM
08:35
Partly Cloudy
59°F / 15°C 55°F / 13°C 88% 30.18 in
(1022 mb)
NNW 10.4 mph
(NNW 17 kph)
- 10SM
08:15
Overcast
57°F / 14°C 55°F / 13°C 94% 30.18 in
(1022 mb)
NNW 8.1 mph
(NNW 13 kph)
- 10SM
07:55
Overcast
54°F / 12°C 54°F / 12°C 100% 30.18 in
(1022 mb)
NNW 8.1 mph
(NNW 13 kph)
- 7SM
07:35
Overcast
54°F / 12°C 54°F / 12°C 100% 30.18 in
(1022 mb)
N 5.8 mph
(N 9 kph)
- 7SM
07:15
Mostly Cloudy
54°F / 12°C 54°F / 12°C 100% 30.18 in
(1022 mb)
NNW 4.6 mph
(NNW 7 kph)
- 10SM
06:55
Overcast
54°F / 12°C 54°F / 12°C 100% 30.18 in
(1022 mb)
NW 3.5 mph
(NW 6 kph)
- 10SM
06:35
Overcast
54°F / 12°C 52°F / 11°C 94% 30.18 in
(1022 mb)
Calm - 7SM
06:15
Overcast
52°F / 11°C 52°F / 11°C 100% 30.18 in
(1022 mb)
NNW 3.5 mph
(NNW 6 kph)
- 10SM
05:55
Overcast
Fog And Mist
52°F / 11°C 52°F / 11°C 100% 30.18 in
(1022 mb)
Calm - 5SM
05:35
Overcast
Fog And Mist
52°F / 11°C 52°F / 11°C 100% N/A N 4.6 mph
(N 7 kph)
- 4SM
05:15
Overcast
Fog And Mist
52°F / 11°C 52°F / 11°C 100% 30.18 in
(1022 mb)
N 3.5 mph
(N 6 kph)
- 2 1/2SM
04:55
Overcast
Fog And Mist
52°F / 11°C 52°F / 11°C 100% 30.15 in
(1021 mb)
N 4.6 mph
(N 7 kph)
- 1 3/4SM
04:35
Overcast
Fog And Mist
52°F / 11°C 52°F / 11°C 100% 30.15 in
(1021 mb)
NNW 3.5 mph
(NNW 6 kph)
- 3SM
04:15
Overcast
Fog And Mist
52°F / 11°C 52°F / 11°C 100% 30.15 in
(1021 mb)
NNW 3.5 mph
(NNW 6 kph)
- 2 1/2SM
03:55
Overcast
Fog And Mist
52°F / 11°C 52°F / 11°C 100% 30.15 in
(1021 mb)
NNW 3.5 mph
(NNW 6 kph)
- 5SM
03:35
Overcast
Fog And Mist
54°F / 12°C 52°F / 11°C 94% 30.15 in
(1021 mb)
NNW 4.6 mph
(NNW 7 kph)
- 5SM
03:15
Overcast
Fog And Mist
54°F / 12°C 52°F / 11°C 94% 30.15 in
(1021 mb)
N 3.5 mph
(N 6 kph)
- 5SM
02:55
Overcast
Fog And Mist
54°F / 12°C 52°F / 11°C 94% 30.15 in
(1021 mb)
Calm - 5SM
02:35
Overcast
Fog And Mist
54°F / 12°C 54°F / 12°C 100% 30.15 in
(1021 mb)
N 3.5 mph
(N 6 kph)
- 4SM
02:15
Overcast
54°F / 12°C 54°F / 12°C 100% 30.15 in
(1021 mb)
Calm - 7SM
01:55
Overcast
54°F / 12°C 54°F / 12°C 100% 30.15 in
(1021 mb)
Calm - 10SM
01:35
Overcast
54°F / 12°C 52°F / 11°C 94% 30.15 in
(1021 mb)
Calm - 10SM
01:15
Overcast
54°F / 12°C 52°F / 11°C 94% 30.15 in
(1021 mb)
Calm - 10SM
00:55
Overcast
Fog And Mist
52°F / 11°C 52°F / 11°C 100% 30.15 in
(1021 mb)
Calm - 3SM
00:35
Mostly Cloudy
Fog And Mist
52°F / 11°C 52°F / 11°C 100% 30.15 in
(1021 mb)
E 3.5 mph
(E 6 kph)
- 5SM
00:15
Mostly Cloudy
Fog And Mist
52°F / 11°C 52°F / 11°C 100% 30.15 in
(1021 mb)
Calm - 5SM
Time Weather Temperature Dewpoint Humidity Pressure Winds Precip Visibility


Weather for websites

WeatherForYou.com, LLC is not responsible for any damages or problems caused by this service. Current weather conditions are obtained from the closest station including government and personal stations which may have varying degrees of accuracy. Weather forecasts are derived from the NOAA NDFD. Like all things, this site belongs to Jesus Christ... He just trusts me to maintain it. If you have any questions or comments email webmaster@weatherforyou.com

Copyright © 2014, WeatherForYou.com LLC. All rights reserved.